Date,TemperatureHighF,TemperatureAvgF,TemperatureLowF,DewpointHighF,DewpointAvgF,DewpointLowF,HumidityHigh,HumidityAvg,HumidityLow,PressureMaxIn,PressureMinIn,WindSpeedMaxMPH,WindSpeedAvgMPH,GustSpeedMaxMPH,PrecipitationSumIn
2013-1-1,44.1,40.2,35.6,42.5,36.3,34.0,96,86,72,29.69,29.16,12,4,12,0.00
2013-1-2,51.3,45.2,41.0,51.0,43.6,36.3,99,94,80,29.96,29.68,14,4,14,0.00
2013-1-3,53.1,49.2,47.1,51.9,48.9,46.9,99,99,93,30.23,29.95,14,4,14,0.00
2013-1-4,50.2,48.0,45.1,48.6,46.4,43.0,99,94,86,30.27,30.21,14,2,14,0.00
2013-1-5,50.7,47.7,45.0,48.4,46.4,43.5,99,95,88,30.22,30.12,11,3,11,0.00
2013-1-6,48.4,46.8,45.0,48.1,46.5,44.7,99,99,97,30.16,29.99,8,1,8,0.00
2013-1-7,48.9,46.7,44.8,48.3,46.3,44.5,99,99,97,29.99,29.84,10,3,10,0.00
2013-1-8,50.7,48.1,44.8,50.1,47.7,44.5,99,99,95,29.86,29.82,11,2,11,0.17
2013-1-9,45.5,38.6,31.8,45.2,38.1,31.6,99,98,92,29.86,29.73,8,0,8,0.01
2013-1-10,37.8,34.1,31.5,37.5,33.9,31.0,99,99,99,29.73,29.55,5,0,5,0.00
2013-1-11,43.5,38.4,35.1,43.3,38.1,34.8,99,99,95,29.71,29.58,5,1,5,0.09
2013-1-12,38.3,35.2,32.2,36.1,33.3,28.8,99,93,80,29.67,29.50,18,5,18,0.08
2013-1-13,37.4,31.8,27.5,35.2,30.1,26.7,99,94,77,29.81,29.67,7,0,7,0.00
2013-1-14,38.7,33.2,30.6,38.4,33.0,30.3,99,99,99,29.72,29.32,14,3,14,0.31
2013-1-15,38.7,31.2,26.1,37.3,29.8,25.2,99,94,83,29.51,29.33,14,1,14,0.01
2013-1-16,28.0,26.2,25.2,27.8,26.0,24.9,99,99,99,29.66,29.47,5,0,5,0.00
2013-1-17,34.2,30.5,25.7,31.2,28.7,25.5,99,93,78,29.68,29.47,10,2,10,0.00
2013-1-18,32.4,28.5,25.9,31.8,27.8,25.7,99,97,92,29.47,29.10,13,5,13,0.00
2013-1-19,31.8,30.1,27.7,30.1,28.9,27.4,99,95,88,29.21,29.08,11,4,11,0.00
2013-1-20,32.2,30.6,29.5,31.9,29.4,27.0,99,95,87,29.18,28.95,14,3,14,0.00
2013-1-21,33.3,30.1,27.7,32.2,29.5,27.5,99,98,90,29.10,28.90,0,0,0,0.00
2013-1-22,32.7,30.2,25.0,32.5,29.7,24.6,99,98,90,29.39,29.09,8,1,8,0.00
2013-1-23,32.7,31.0,29.8,32.5,30.8,29.6,99,99,99,29.50,29.38,5,2,5,0.00
2013-1-24,37.4,31.0,25.0,34.0,27.5,19.7,99,88,63,29.76,29.49,5,1,5,0.01
2013-1-25,47.1,31.7,24.1,43.2,26.5,21.6,93,81,74,29.73,29.41,11,2,11,0.01
2013-1-26,45.0,36.4,34.2,44.7,31.2,27.7,99,81,77,29.41,29.03,15,5,15,0.72
2013-1-27,50.7,43.7,36.1,50.5,38.3,31.3,99,82,56,29.18,28.82,23,9,23,0.15
2013-1-28,50.0,41.5,33.6,47.0,38.0,31.7,99,88,71,29.35,29.01,24,8,24,0.25
2013-1-29,55.6,50.9,45.3,54.1,47.9,40.3,99,90,70,29.23,29.08,24,8,24,0.08
2013-1-30,51.6,46.6,41.7,48.0,39.0,30.4,99,76,45,29.61,29.12,25,9,25,0.13
2013-1-31,50.0,44.8,41.4,43.1,37.3,33.5,99,76,55,29.60,29.34,25,8,25,0.34
2013-2-1,45.3,41.1,38.5,40.4,37.7,34.7,99,88,69,29.43,29.10,14,2,14,0.26
2013-2-2,45.0,36.2,30.7,38.4,27.6,22.2,97,73,43,29.87,29.33,15,4,15,0.00
2013-2-3,49.6,41.3,31.6,46.0,37.7,26.2,96,87,80,29.86,29.51,14,5,14,0.00
2013-2-4,50.4,45.5,36.5,46.2,36.4,30.9,92,71,52,29.57,29.30,21,9,21,0.08
2013-2-5,41.0,36.8,32.7,40.7,31.6,26.8,99,82,60,29.30,28.95,17,8,17,0.17
2013-2-6,42.3,38.4,33.6,39.9,31.3,24.0,96,77,57,29.75,29.05,17,7,17,0.07
2013-2-7,38.8,35.6,31.3,35.2,31.8,24.5,99,86,69,29.77,29.62,9,1,9,0.11
2013-2-8,44.4,37.5,34.0,38.4,34.4,32.1,99,89,72,29.81,29.69,14,1,14,0.00
2013-2-9,38.3,35.8,32.9,38.0,35.2,32.7,99,98,89,29.80,29.46,4,0,4,0.21
2013-2-10,39.9,35.8,32.0,39.7,35.5,31.8,99,99,99,29.45,28.90,12,2,12,0.63
2013-2-11,34.0,32.5,31.8,33.7,32.1,31.3,99,98,95,29.46,28.95,1,0,1,0.00
2013-2-12,33.6,32.1,30.9,32.1,28.0,25.0,99,85,73,29.76,29.46,0,0,0,0.01
2013-2-13,36.9,32.4,29.7,36.6,30.1,25.9,99,91,82,29.77,29.46,13,3,13,0.39
2013-2-14,53.4,43.7,37.0,46.1,40.1,35.1,99,88,59,29.61,29.32,14,2,14,0.41
2013-2-15,49.8,41.0,34.5,39.4,35.2,30.4,99,81,61,29.82,29.61,8,0,8,0.01
2013-2-16,52.2,39.9,29.8,42.4,35.5,29.2,99,85,56,29.86,29.79,5,0,5,0.00
2013-2-17,50.4,38.4,32.5,40.3,33.3,27.6,99,84,48,29.82,29.72,8,1,8,0.00
2013-2-18,49.6,38.8,30.9,35.9,32.9,28.3,96,80,56,29.77,29.71,10,1,10,0.00
2013-2-19,59.9,37.9,25.2,41.2,29.9,24.4,99,77,33,29.76,29.68,9,0,9,0.00
2013-2-20,42.8,35.2,30.9,36.4,30.5,23.3,99,84,62,29.90,29.75,12,3,12,0.00
2013-2-21,34.7,32.2,30.4,23.5,20.7,16.6,73,62,54,29.90,29.82,15,4,15,0.00
2013-2-22,32.7,31.7,30.7,23.7,21.1,17.1,71,64,57,29.83,29.78,13,2,13,0.00
2013-2-23,37.2,32.8,30.7,28.6,24.7,22.0,87,72,58,29.88,29.76,9,1,9,0.00
2013-2-24,36.5,33.6,31.5,28.6,25.6,22.9,87,72,59,29.98,29.87,12,2,12,0.00
2013-2-25,38.5,36.2,32.5,36.5,32.8,26.4,97,87,75,30.08,29.94,17,5,17,0.01
2013-2-26,38.5,36.6,34.9,38.2,35.8,33.0,99,97,87,30.24,30.07,17,6,17,0.00
2013-2-27,48.2,38.0,34.5,36.0,33.3,29.3,99,85,55,30.23,30.15,14,3,14,0.00
2013-2-28,50.2,39.4,31.8,35.8,28.6,19.5,95,69,31,30.16,30.02,14,2,14,0.00
2013-3-1,43.9,41.0,38.1,38.2,33.0,28.5,97,74,58,30.07,30.01,12,2,12,0.00
2013-3-2,57.6,40.9,29.3,31.7,28.0,24.4,83,62,36,30.06,29.89,8,0,8,0.00
2013-3-3,46.2,37.8,26.1,36.7,30.8,23.0,95,77,62,29.90,29.73,4,0,4,0.00
2013-3-4,50.7,39.8,31.3,32.6,30.7,24.3,90,71,47,29.73,29.37,8,1,8,0.00
2013-3-5,65.7,42.9,25.7,44.3,33.3,22.8,95,72,39,29.37,29.22,4,0,4,0.00
2013-3-6,45.9,40.6,35.8,42.9,38.4,34.0,99,92,82,29.24,29.18,11,3,11,0.00
2013-3-7,45.7,43.0,39.9,45.4,42.7,39.3,99,99,95,29.18,29.02,10,2,10,0.47
2013-3-8,44.2,42.4,39.4,44.0,42.1,39.1,99,99,99,29.22,29.03,9,1,9,0.30
2013-3-9,41.5,38.7,34.9,41.3,38.2,34.1,99,98,96,29.35,29.21,14,2,14,0.06
2013-3-10,34.9,33.1,29.7,34.4,29.8,21.6,99,88,65,29.45,29.33,21,8,21,0.00
2013-3-11,35.6,28.5,25.2,25.4,19.7,14.4,86,70,45,29.52,29.43,29,10,29,0.00
2013-3-12,40.6,32.7,25.3,26.4,21.9,15.3,87,65,49,29.53,29.47,17,4,17,0.00
2013-3-13,50.0,37.0,28.4,30.1,24.1,19.1,83,61,33,29.61,29.44,13,2,13,0.00
2013-3-14,48.7,36.5,23.7,33.1,25.4,19.3,91,67,36,29.65,29.46,11,1,11,0.02
2013-3-15,46.4,41.1,36.1,41.8,38.6,32.4,99,91,78,29.46,29.04,18,5,18,0.14
2013-3-16,51.6,40.9,33.6,42.2,38.7,33.4,99,92,58,29.04,28.85,18,3,18,0.83
2013-3-17,47.3,36.7,30.0,39.8,33.7,28.3,99,90,65,28.91,28.80,8,0,8,0.00
2013-3-18,53.4,37.2,25.9,42.0,32.0,25.5,99,83,45,29.02,28.82,9,1,9,0.01
2013-3-19,42.1,37.4,34.0,36.8,33.7,31.2,99,87,75,29.17,29.01,8,1,8,0.01
2013-3-20,39.9,36.1,33.6,36.1,32.2,28.7,99,86,72,29.61,29.16,11,2,11,0.00
2013-3-21,42.6,35.9,29.7,32.3,28.7,26.0,99,76,54,29.63,29.49,17,4,17,0.01
2013-3-22,38.8,33.6,32.2,33.2,32.1,30.0,99,94,76,29.50,29.36,21,4,21,0.20
2013-3-23,33.4,31.4,29.5,33.2,31.2,29.2,99,99,99,29.56,29.40,0,0,0,0.00
2013-3-24,32.5,29.6,27.1,29.2,26.0,21.9,99,87,72,29.64,29.54,18,3,18,0.15
2013-3-25,38.5,31.8,28.8,24.0,22.6,21.0,79,69,54,29.66,29.61,25,8,25,0.08
2013-3-26,37.0,32.2,29.8,23.5,21.5,19.1,74,64,53,29.63,29.55,19,6,19,0.00
2013-3-27,38.1,32.5,30.0,26.9,22.7,18.2,78,67,52,29.57,29.51,16,3,16,0.00
2013-3-28,41.9,33.5,27.1,26.9,21.5,18.8,77,62,44,29.60,29.52,17,3,17,0.00
2013-3-29,41.4,34.3,28.9,23.9,20.9,18.3,72,58,45,29.57,29.44,15,2,15,0.00
2013-3-30,43.9,33.6,27.1,29.6,24.8,19.0,95,71,48,29.61,29.45,12,2,12,0.00
2013-3-31,44.1,34.0,22.3,30.0,21.5,17.8,86,62,40,29.61,29.52,15,2,15,0.00
2013-4-1,37.9,34.2,30.4,25.8,23.8,20.6,79,66,54,29.56,29.49,20,4,20,0.00
2013-4-2,49.3,37.1,26.6,28.6,19.8,11.9,82,53,24,29.74,29.56,17,4,17,0.00
2013-4-3,46.6,37.2,30.0,31.0,22.8,14.3,93,60,29,29.75,29.69,17,3,17,0.00
2013-4-4,42.4,36.2,32.2,29.2,23.6,17.3,88,62,38,29.70,29.62,4,0,4,0.05
2013-4-5,47.3,37.8,31.5,30.1,25.5,20.4,87,63,37,29.81,29.62,2,0,2,0.37
2013-4-6,58.5,41.4,27.7,30.0,24.6,20.6,82,55,26,29.90,29.80,0,0,0,0.00
2013-4-7,52.3,41.1,25.7,32.3,22.7,17.1,79,49,31,29.87,29.49,0,0,0,0.00
2013-4-8,50.7,40.1,34.0,29.9,26.2,20.3,83,58,36,29.49,29.19,0,0,0,0.00
2013-4-9,52.3,41.8,34.5,34.4,31.4,28.6,86,69,41,29.23,29.07,0,0,0,0.00
2013-4-10,56.7,44.0,35.4,37.7,32.8,29.0,81,66,43,29.32,29.10,0,0,0,0.00
2013-4-11,46.4,43.1,40.5,44.0,39.3,34.1,99,87,65,29.11,29.00,0,0,0,0.01
2013-4-12,56.7,46.3,41.0,49.6,42.3,35.8,99,87,60,29.35,28.92,0,0,0,0.13
2013-4-13,52.3,47.2,40.3,52.1,44.1,34.3,99,89,64,29.45,29.32,0,0,0,0.13
2013-4-14,62.6,54.8,50.2,52.6,49.0,45.9,99,82,58,29.49,29.37,0,0,0,0.08
2013-4-15,63.9,53.6,47.8,46.9,44.5,40.9,90,72,47,29.61,29.46,0,0,0,0.00
2013-4-16,63.5,53.8,46.6,48.4,40.0,31.6,96,63,33,29.66,29.40,0,0,0,0.04
2013-4-17,60.8,52.3,43.7,52.1,44.1,35.6,99,75,57,29.66,29.27,0,0,0,0.00
2013-4-18,58.5,49.9,45.9,43.8,36.3,28.5,82,60,37,29.63,29.26,0,0,0,0.08
2013-4-19,63.0,49.4,39.2,37.7,33.8,26.5,76,57,27,30.12,29.62,0,0,0,0.00
2013-4-20,63.3,49.1,32.9,43.3,32.1,26.9,92,56,26,30.14,29.94,0,0,0,0.00
2013-4-21,54.3,46.1,37.6,40.0,33.7,25.6,89,63,43,29.94,29.61,0,0,0,0.00
2013-4-22,57.9,49.1,40.3,46.4,42.1,38.3,99,78,50,29.62,29.50,0,0,0,0.00
2013-4-23,71.4,56.6,44.8,46.8,43.4,40.1,93,64,38,29.83,29.55,0,0,0,0.00
2013-4-24,63.5,53.7,45.5,52.3,47.3,40.5,99,79,65,29.88,29.77,0,0,0,0.00
2013-4-25,63.9,53.3,44.4,53.1,47.2,40.0,99,81,53,29.86,29.69,0,0,0,0.08
2013-4-26,59.2,47.1,39.0,40.5,32.8,19.0,86,61,23,29.73,29.54,0,0,0,0.00
2013-4-27,54.0,43.6,34.5,38.5,32.6,27.5,89,67,40,29.74,29.53,0,0,0,0.06
2013-4-28,56.1,45.4,34.2,43.7,34.8,28.0,94,69,41,29.73,29.44,0,0,0,0.06
2013-4-29,58.5,48.0,38.7,43.4,34.6,30.3,93,62,38,29.80,29.47,0,0,0,0.00
2013-4-30,61.0,48.3,38.3,37.8,32.5,26.4,82,57,29,29.94,29.80,0,0,0,0.00
2013-5-1,68.7,51.1,31.6,41.4,30.7,24.1,89,50,21,29.94,29.81,0,0,0,0.00
2013-5-2,71.8,55.0,39.2,38.9,32.9,28.6,80,47,21,29.88,29.78,0,0,0,0.00
2013-5-3,62.1,52.6,41.2,41.1,36.2,27.5,68,54,44,29.79,29.60,0,0,0,0.00
2013-5-4,64.0,53.6,46.8,47.4,40.5,33.6,88,63,34,29.73,29.52,0,0,0,0.05
2013-5-5,69.8,55.9,44.1,47.3,42.4,37.3,87,63,38,29.79,29.72,0,0,0,0.00
2013-5-6,75.7,58.7,39.9,48.1,38.7,29.1,95,52,21,29.78,29.66,0,0,0,0.00
2013-5-7,78.8,63.0,43.3,50.6,39.6,33.5,84,46,21,29.69,29.46,0,0,0,0.00
2013-5-8,66.6,55.3,45.3,54.8,45.8,36.9,99,72,44,29.46,29.24,12,1,12,0.22
2013-5-9,55.8,48.7,43.0,48.5,40.7,34.3,96,75,46,29.38,29.11,25,8,25,0.15
2013-5-10,62.1,51.7,46.2,47.7,42.5,38.1,94,72,49,29.47,29.18,18,8,18,0.01
2013-5-11,58.6,47.2,41.9,48.1,39.7,33.6,96,76,49,29.49,29.35,17,6,17,0.12
2013-5-12,53.1,48.5,40.5,51.7,42.4,34.8,99,80,53,29.59,29.45,14,5,14,0.12
2013-5-13,57.9,49.8,41.5,50.5,37.2,29.1,98,64,35,29.48,29.37,18,7,18,0.01
2013-5-14,51.8,44.6,37.0,44.2,38.8,33.7,99,81,54,29.37,28.78,12,4,12,0.84
2013-5-15,60.1,46.5,39.7,48.3,39.6,33.3,99,80,41,29.16,28.67,14,4,14,0.26
2013-5-16,68.0,50.7,33.1,49.8,34.5,27.2,98,59,26,29.20,29.10,10,2,10,0.02
2013-5-17,60.3,50.6,44.6,43.2,40.6,37.6,89,70,45,29.45,29.19,11,4,11,0.00
2013-5-18,60.4,52.3,46.2,43.8,41.2,38.4,84,67,48,29.45,29.33,12,3,12,0.00
2013-5-19,72.0,58.5,42.6,53.7,43.5,39.4,97,61,35,29.57,29.41,11,3,11,0.00
2013-5-20,65.5,56.1,51.1,53.8,48.5,43.1,88,76,65,29.60,29.50,11,4,11,0.07
2013-5-21,60.3,53.9,47.5,52.7,49.0,40.6,99,84,61,29.73,29.59,11,3,11,0.01
2013-5-22,59.9,50.3,44.1,44.7,38.1,30.4,86,65,37,29.73,29.66,17,6,17,0.00
2013-5-23,55.6,44.9,39.7,40.6,34.7,28.1,85,68,37,29.67,29.51,21,6,21,0.14
2013-5-24,52.3,44.8,40.1,39.7,36.5,34.9,86,73,57,29.72,29.35,24,8,24,0.02
2013-5-25,68.5,52.9,37.9,42.1,34.2,25.3,93,55,22,29.81,29.72,9,3,9,0.00
2013-5-26,72.5,57.2,39.6,39.2,33.0,26.5,77,43,19,29.78,29.55,8,3,8,0.00
2013-5-27,63.9,52.0,40.8,42.6,37.0,30.7,82,58,35,29.55,29.21,19,6,19,0.00
2013-5-28,54.0,48.6,47.3,52.8,44.6,42.6,99,86,82,29.24,29.07,9,2,9,0.17
2013-5-29,62.1,51.3,46.6,56.5,50.3,46.3,99,96,71,29.44,29.18,14,4,14,0.35
2013-5-30,64.0,55.2,51.8,54.8,51.7,48.1,99,89,61,29.67,29.41,14,4,14,0.35
2013-5-31,76.3,61.6,41.2,52.0,47.1,-1.6,91,63,16,29.79,29.66,14,5,14,0.00
2013-6-1,66.6,56.1,45.1,41.6,38.5,35.2,76,54,36,29.95,29.79,15,6,15,0.00
2013-6-2,70.3,57.4,46.8,43.6,38.9,34.8,82,54,29,30.07,29.94,13,4,13,0.00
2013-6-3,74.1,60.0,43.7,49.4,41.0,36.6,89,52,29,30.10,30.03,10,3,10,0.00
2013-6-4,71.1,59.3,44.8,45.9,39.6,34.7,78,50,32,30.06,29.87,16,6,16,0.00
2013-6-5,62.8,54.6,48.6,47.7,45.3,42.2,81,71,54,29.87,29.75,10,4,10,0.00
2013-6-6,72.7,56.2,46.6,48.5,44.6,38.9,99,69,37,29.86,29.78,11,4,11,0.00
2013-6-7,74.8,58.6,45.0,48.6,42.2,34.6,94,58,32,29.88,29.83,17,6,17,0.00
2013-6-8,68.2,56.6,47.5,46.4,43.8,41.8,86,64,42,29.88,29.71,14,6,14,0.00
2013-6-9,71.1,56.4,48.4,45.0,42.6,40.3,77,62,37,29.72,29.58,11,5,11,0.00
2013-6-10,63.3,53.5,47.5,42.7,40.7,39.6,75,63,45,29.63,29.54,9,2,9,0.00
2013-6-11,67.5,56.0,46.8,56.0,48.7,40.3,89,77,62,29.54,29.42,11,3,11,0.01
2013-6-12,66.2,59.0,54.5,58.6,54.3,48.4,99,86,55,29.43,29.31,17,6,17,0.26
2013-6-13,64.8,56.5,52.2,56.4,50.3,44.6,94,80,57,29.60,29.27,14,6,14,0.32
2013-6-14,66.6,55.6,46.4,53.2,46.8,39.9,93,73,48,29.61,29.30,18,5,18,0.05
2013-6-15,62.1,54.4,48.0,50.7,45.5,38.6,96,73,50,29.40,29.24,17,7,17,0.25
2013-6-16,62.8,57.2,50.4,48.1,46.1,42.6,84,67,49,29.59,29.40,13,4,13,0.00
2013-6-17,69.3,58.4,52.9,49.6,47.2,42.4,83,67,47,29.61,29.55,12,4,12,0.02
2013-6-18,75.9,61.7,51.6,56.3,51.2,43.1,82,69,47,29.62,29.54,9,3,9,0.00
2013-6-19,82.8,68.3,59.5,57.4,51.6,46.7,88,58,33,29.64,29.56,11,3,11,0.00
2013-6-20,70.3,62.1,53.8,61.4,54.3,43.5,97,77,59,29.63,29.39,10,3,10,0.34
2013-6-21,76.5,64.2,54.9,60.2,55.1,43.8,99,75,42,29.44,29.37,14,4,14,0.00
2013-6-22,62.4,56.1,51.8,56.4,49.9,44.6,99,80,63,29.39,29.18,18,7,18,0.15
2013-6-23,66.2,56.3,52.2,55.7,48.3,41.5,88,75,61,29.64,29.19,22,7,22,0.04
2013-6-24,68.4,55.9,48.2,43.0,40.4,37.6,71,57,39,29.91,29.63,13,4,13,0.00
2013-6-25,72.7,60.2,44.6,49.0,42.4,37.2,88,55,28,30.03,29.91,7,2,8,0.00
2013-6-26,73.8,62.2,53.6,48.1,45.1,39.1,74,55,36,30.05,30.00,12,3,12,0.00
2013-6-27,67.8,56.3,51.3,54.1,46.0,38.0,99,71,37,30.02,29.78,14,4,14,0.26
2013-6-28,68.7,60.5,54.3,63.7,57.6,54.1,99,91,69,29.78,29.65,11,4,11,0.13
2013-6-29,76.3,61.9,51.8,55.6,47.2,41.4,92,61,32,29.85,29.71,14,5,14,0.00
2013-6-30,77.2,64.1,56.7,58.8,52.8,47.8,99,69,39,29.85,29.63,17,6,17,0.00
2013-7-1,71.1,59.5,52.3,50.0,44.3,38.6,81,59,32,29.63,29.59,12,4,12,0.00
2013-7-2,62.6,56.6,50.4,54.3,47.6,41.4,93,72,57,29.60,29.19,14,4,14,0.02
2013-7-3,68.0,60.1,55.2,60.0,53.5,47.1,99,80,56,29.58,29.17,12,4,12,0.12
2013-7-4,77.7,64.2,53.1,59.3,52.6,45.9,99,69,39,29.87,29.57,14,5,14,0.00
2013-7-5,81.5,67.0,51.1,52.9,49.4,45.5,85,56,31,30.01,29.87,7,2,7,0.00
2013-7-6,86.5,71.4,58.1,55.8,52.2,46.3,84,54,25,30.04,29.96,9,2,9,0.00
2013-7-7,88.7,74.3,57.2,56.3,51.2,46.3,78,48,27,30.15,30.04,11,3,11,0.00
2013-7-8,80.6,68.1,59.7,55.6,52.6,49.1,84,59,36,30.17,30.08,10,4,11,0.00
2013-7-9,86.5,70.1,53.4,54.8,40.8,17.3,97,46,10,30.09,29.89,10,3,10,0.00
2013-7-10,74.7,66.5,57.4,56.1,50.6,38.3,79,58,34,29.94,29.89,11,4,11,0.00
2013-7-11,78.1,63.9,51.3,51.3,44.8,39.5,80,53,26,29.92,29.84,12,4,12,0.00
2013-7-12,88.9,69.9,50.2,55.2,50.6,41.9,89,56,21,29.89,29.82,7,2,7,0.00
2013-7-13,94.6,77.3,59.2,56.0,52.4,48.6,69,45,23,29.87,29.82,10,2,10,0.00
2013-7-14,88.5,73.6,60.6,57.9,51.6,41.8,82,50,23,29.88,29.78,9,3,9,0.00
2013-7-15,88.9,73.2,54.9,57.9,48.9,40.6,70,45,25,29.84,29.78,10,2,10,0.00
2013-7-16,88.9,73.2,56.7,54.5,50.8,45.9,77,49,23,29.83,29.78,9,2,9,0.00
2013-7-17,92.7,74.8,59.0,56.2,52.3,45.9,78,49,21,29.91,29.82,9,3,9,0.00
2013-7-18,89.4,74.9,61.5,55.0,52.1,48.2,72,48,26,29.94,29.88,11,3,11,0.00
2013-7-19,87.8,73.9,57.2,57.0,50.8,48.3,82,47,27,29.92,29.82,13,4,13,0.00
2013-7-20,75.0,67.1,61.7,59.8,56.2,52.9,86,69,52,29.88,29.79,14,6,14,0.00
2013-7-21,76.8,64.0,57.4,60.5,56.3,53.2,99,77,53,29.80,29.65,11,5,11,0.00
2013-7-22,92.7,71.9,59.4,62.1,59.3,56.1,99,70,33,29.68,29.51,8,3,8,0.00
2013-7-23,80.1,71.0,64.8,69.5,61.7,54.3,99,74,49,29.54,29.46,13,3,13,0.59
2013-7-24,82.2,70.3,61.0,58.6,53.0,48.1,77,56,31,29.54,29.47,13,3,13,0.00
2013-7-25,81.0,68.1,59.2,64.5,56.0,48.3,99,69,37,29.50,29.43,12,3,13,0.12
2013-7-26,83.8,70.1,57.7,57.6,48.8,40.1,81,50,22,29.50,29.44,10,2,10,0.00
2013-7-27,83.1,66.7,53.2,60.0,51.5,43.4,99,64,26,29.45,29.16,8,2,8,0.84
2013-7-28,75.9,65.1,57.4,60.9,55.6,48.9,99,75,41,29.29,29.16,17,6,17,0.21
2013-7-29,72.5,64.2,59.4,59.2,55.5,50.1,93,74,53,29.49,29.28,16,5,16,0.25
2013-7-30,76.8,64.8,57.2,58.3,53.9,50.6,93,70,45,29.50,29.42,11,4,11,0.00
2013-7-31,71.8,62.9,57.7,67.0,58.4,51.8,96,85,72,29.54,29.46,13,3,13,0.14
2013-8-1,93.4,74.7,60.8,65.7,60.8,54.5,98,67,29,29.46,29.23,16,4,16,0.00
2013-8-2,79.9,69.2,57.6,62.2,57.6,50.9,90,69,42,29.36,29.28,14,6,17,0.09
2013-8-3,76.3,63.8,55.2,59.2,53.6,47.2,99,73,38,29.61,29.34,14,5,14,0.14
2013-8-4,64.6,61.0,56.1,61.1,57.1,52.9,95,87,73,29.62,29.54,13,5,14,0.28
2013-8-5,70.5,60.9,54.3,61.3,58.1,50.2,99,91,67,29.54,29.35,12,4,12,0.37
2013-8-6,77.5,62.0,49.1,56.2,46.6,41.8,99,61,29,29.61,29.52,6,2,8,0.00
2013-8-7,76.3,64.5,55.9,53.4,46.1,41.5,75,54,31,29.63,29.52,11,3,11,0.00
2013-8-8,77.5,65.4,50.0,56.2,48.4,44.9,91,57,32,29.68,29.61,8,2,14,0.00
2013-8-9,69.8,63.1,57.9,61.4,50.8,43.6,99,66,46,29.76,29.55,8,4,14,0.11
2013-8-10,73.6,62.7,56.3,52.3,45.5,39.3,82,56,32,29.77,29.67,9,3,13,0.01
2013-8-11,71.8,61.5,55.2,57.9,49.3,40.8,99,68,35,29.67,29.58,11,4,15,0.04
2013-8-12,68.5,60.2,53.4,49.5,45.8,42.2,79,60,40,29.68,29.56,12,5,14,0.00
2013-8-13,69.8,56.8,49.5,56.5,48.9,43.2,87,75,55,29.78,29.68,8,3,10,0.08
2013-8-14,70.2,60.4,49.5,61.9,53.6,46.9,99,80,54,29.78,29.66,9,3,12,0.00
2013-8-15,76.5,66.7,61.0,64.8,59.5,53.0,99,80,51,29.67,29.51,13,6,23,0.02
2013-8-16,79.2,66.7,54.9,66.8,56.9,47.4,99,75,37,29.57,29.45,11,4,13,0.64
2013-8-17,66.2,60.1,52.5,61.6,54.6,47.5,99,82,66,29.56,29.23,15,6,17,0.00
2013-8-18,76.3,64.5,54.7,55.9,48.7,41.9,90,60,32,29.48,29.23,11,4,15,0.01
2013-8-19,72.1,61.2,52.0,53.6,45.8,40.9,86,59,36,29.87,29.48,6,3,9,0.00
2013-8-20,77.7,64.7,53.8,54.5,48.9,43.2,85,59,31,29.91,29.85,8,3,9,0.00
2013-8-21,73.4,63.2,52.9,57.1,52.2,45.9,82,68,49,29.86,29.70,10,3,11,0.00
2013-8-22,83.8,68.3,59.9,62.7,57.3,50.0,96,71,35,29.70,29.59,8,2,9,0.00
2013-8-23,76.6,67.0,55.6,60.5,57.8,53.3,98,74,50,29.61,29.45,7,2,8,0.02
2013-8-24,73.0,62.1,55.9,60.0,52.7,42.3,95,73,43,29.50,29.42,13,5,14,0.02
2013-8-25,74.8,62.6,53.8,59.0,53.0,43.1,84,71,55,29.67,29.47,11,5,13,0.00
2013-8-26,85.1,66.6,58.3,56.1,53.0,47.1,90,65,32,29.71,29.64,8,4,9,0.00
2013-8-27,80.2,63.7,52.7,58.6,52.1,45.4,99,70,30,29.73,29.65,8,2,8,0.00
2013-8-28,74.1,63.8,57.4,57.8,54.6,50.6,95,73,49,29.79,29.73,7,3,8,0.00
2013-8-29,75.0,63.0,51.6,55.6,52.3,47.3,88,70,46,29.75,29.68,14,3,14,0.00
2013-8-30,76.6,65.4,57.9,62.0,56.5,53.7,99,75,47,29.69,29.59,11,4,14,0.00
2013-8-31,69.6,59.4,50.0,54.7,40.4,33.1,74,52,28,29.97,29.70,14,4,14,0.00
2013-9-1,73.9,58.4,48.4,48.1,44.0,39.7,79,60,35,29.98,29.89,10,4,14,0.00
2013-9-2,79.5,64.0,53.1,55.6,51.4,46.7,82,65,41,29.92,29.83,10,3,10,0.00
2013-9-3,83.7,65.3,53.2,62.7,54.7,50.4,97,72,36,29.91,29.81,4,1,5,0.00
2013-9-4,86.4,68.2,50.4,66.9,52.3,46.7,99,62,26,29.81,29.54,7,1,10,0.00
2013-9-5,83.5,65.8,50.2,58.7,49.2,43.4,90,58,25,29.54,29.39,9,2,11,0.00
2013-9-6,66.9,55.0,49.3,57.2,49.9,44.6,99,84,59,29.40,29.30,9,3,10,0.24
2013-9-7,66.0,54.5,46.0,49.5,45.4,40.2,99,74,42,29.56,29.33,8,3,8,0.02
2013-9-8,66.2,52.8,45.5,48.4,43.3,39.3,95,72,40,29.58,29.55,9,3,11,0.01
2013-9-9,68.7,54.2,47.3,55.6,47.6,42.9,99,80,46,29.64,29.52,9,2,14,0.18
2013-9-10,63.0,55.4,48.2,49.5,45.3,41.2,88,70,46,29.76,29.64,14,5,17,0.00
2013-9-11,59.2,55.1,52.3,53.9,51.2,49.3,99,87,71,29.76,29.65,8,3,9,0.13
2013-9-12,75.7,61.7,54.1,62.0,56.0,50.9,99,84,42,29.66,29.59,7,3,8,0.13
2013-9-13,68.4,57.6,48.7,61.6,52.7,46.5,99,85,49,29.65,29.54,8,3,9,0.26
2013-9-14,65.3,52.5,43.7,53.4,45.9,37.5,99,81,40,29.64,29.50,8,2,9,0.01
2013-9-15,58.6,49.8,42.4,58.4,46.0,38.6,99,87,67,29.62,29.04,13,5,18,0.12
2013-9-16,58.3,50.0,44.6,41.3,38.3,35.6,77,65,44,29.16,29.10,12,6,17,0.02
2013-9-17,52.2,49.1,46.0,50.6,43.9,38.0,99,83,67,29.15,28.90,9,4,11,0.22
2013-9-18,60.8,52.5,48.0,52.3,44.9,39.2,99,78,48,29.40,28.98,11,4,13,0.00
2013-9-19,70.5,55.4,50.2,58.7,45.7,41.1,93,71,45,29.43,29.23,13,5,14,0.05
2013-9-20,65.7,56.4,51.6,46.4,44.2,41.9,75,64,47,29.72,29.42,6,2,9,0.00
2013-9-21,75.0,59.9,50.2,59.6,51.9,43.3,93,75,58,29.83,29.70,8,3,8,0.00
2013-9-22,75.7,64.5,53.6,61.8,57.0,50.4,99,79,47,29.91,29.83,8,3,9,0.00
2013-9-23,64.0,59.9,52.7,61.4,57.5,49.9,99,92,81,29.88,29.67,6,1,6,0.00
2013-9-24,75.0,60.7,55.0,59.8,56.3,27.3,99,87,17,29.67,29.47,53,2,53,0.00
2013-9-25,73.9,62.0,55.4,65.2,58.0,54.6,99,88,59,29.48,29.39,5,1,8,0.00
2013-9-27,70.0,61.8,52.9,50.1,45.6,43.8,73,56,41,29.57,29.47,10,4,11,0.00
2013-9-28,66.7,57.2,48.2,50.7,45.5,36.4,97,68,41,29.48,29.31,13,4,13,0.00
2013-9-29,70.7,58.5,52.5,49.7,46.3,43.6,83,66,38,29.35,29.28,14,6,14,0.00
2013-9-30,66.4,58.5,53.8,53.0,48.9,44.9,78,71,58,29.34,29.25,9,4,11,0.00
2013-10-1,63.0,56.0,49.8,52.5,48.0,44.8,86,75,64,29.35,29.31,9,5,12,0.00
2013-10-2,69.3,60.0,54.9,59.9,55.2,47.8,97,85,67,29.39,29.30,9,3,11,0.07
2013-10-3,64.2,61.0,58.1,63.6,60.1,57.8,99,97,92,29.39,29.16,12,4,12,0.09
2013-10-4,68.0,61.2,56.8,63.6,58.9,53.3,99,92,73,29.48,29.13,14,4,14,0.44
2013-10-5,70.9,58.9,55.0,60.0,51.1,43.2,99,78,37,29.78,29.48,6,2,9,0.00
2013-10-6,70.2,57.4,45.3,56.0,49.5,44.2,99,77,45,29.82,29.77,8,2,11,0.00
2013-10-7,67.3,59.3,53.4,59.7,54.5,50.6,99,85,66,29.81,29.75,3,1,8,0.00
2013-10-8,75.2,60.7,55.4,60.5,53.9,47.2,99,80,43,29.80,29.73,4,2,11,0.00
2013-10-9,60.8,53.3,45.5,49.4,43.4,34.9,82,70,49,29.79,29.57,6,2,19,0.02
2013-10-10,56.1,46.9,41.5,38.1,33.5,30.2,74,60,43,29.74,29.58,7,3,16,0.01
2013-10-11,55.6,49.3,43.3,52.3,45.7,34.0,99,88,67,29.76,29.65,7,3,17,0.14
2013-10-12,55.8,51.8,48.4,54.6,51.3,47.9,99,98,93,29.74,29.57,9,3,18,0.54
2013-10-13,52.0,49.5,47.1,51.7,49.3,46.9,99,99,99,29.57,29.34,4,2,12,0.26
2013-10-14,50.7,47.2,44.4,50.5,47.0,44.2,99,99,99,29.33,29.23,5,2,16,0.32
2013-10-15,63.1,49.6,43.2,53.6,47.0,41.9,99,92,58,29.50,29.32,2,1,9,0.00
2013-10-16,60.6,49.9,41.2,57.8,46.4,40.7,99,89,61,29.50,29.13,7,2,19,0.34
2013-10-17,63.9,55.1,49.8,54.2,49.2,45.5,93,81,63,29.51,29.28,5,2,16,0.01
2013-10-18,59.4,54.9,50.7,57.1,53.5,48.8,99,95,86,29.52,29.26,3,1,9,0.11
2013-10-19,66.4,56.3,52.2,60.5,54.6,50.9,99,95,67,29.26,29.11,4,1,13,0.27
2013-10-20,58.6,53.7,51.8,54.2,52.2,48.5,99,95,75,29.19,29.08,4,1,18,0.37
2013-10-21,61.2,57.1,52.7,60.5,56.7,52.2,99,99,95,29.21,29.04,8,3,21,0.46
2013-10-22,61.0,59.0,55.4,60.5,58.3,55.1,99,97,91,29.04,28.78,6,2,14,0.26
2013-10-23,60.4,53.6,44.6,55.9,46.7,35.7,99,80,44,29.34,28.69,6,3,17,0.11
2013-10-24,64.6,52.1,43.2,53.2,46.6,38.5,99,82,61,29.48,29.33,3,1,8,0.00
2013-10-25,65.3,57.6,52.7,60.5,53.6,50.3,99,88,63,29.33,29.06,8,3,18,0.38
2013-10-26,59.7,56.5,49.8,55.6,51.8,46.5,96,85,64,29.15,28.94,8,4,22,0.20
2013-10-27,56.3,52.2,48.2,50.3,47.5,44.4,99,85,70,28.95,28.71,9,3,24,0.13
2013-10-28,55.0,48.4,44.1,49.5,45.1,39.6,99,89,70,29.06,28.42,7,2,17,0.66
2013-10-29,55.2,47.0,41.4,43.8,39.3,34.9,91,76,47,29.55,29.06,4,2,14,0.00
2013-10-30,57.7,48.1,38.8,51.6,42.2,35.8,98,81,59,29.63,29.49,8,2,17,0.06
2013-10-31,52.5,50.1,47.1,52.3,49.8,46.9,99,99,96,29.51,29.39,4,1,11,0.05
2013-11-1,54.7,50.7,47.7,54.4,50.4,47.4,99,99,95,29.39,29.11,6,1,11,0.27
2013-11-2,54.5,48.5,44.6,51.9,43.8,36.4,99,85,61,29.12,28.73,11,4,23,0.04
2013-11-3,53.1,45.4,41.5,39.7,36.4,33.3,93,72,49,29.03,28.69,8,3,21,0.08
2013-11-4,53.8,42.7,37.2,41.8,37.4,33.8,99,83,52,29.00,28.66,5,2,13,0.04
2013-11-5,51.8,45.2,38.1,51.0,39.6,33.3,99,81,61,28.98,28.72,7,2,15,0.08
2013-11-6,56.7,49.3,45.5,56.4,47.0,38.4,99,92,75,29.05,28.87,7,2,14,0.38
2013-11-7,53.1,45.6,41.7,47.6,42.7,39.8,99,90,63,29.25,29.06,4,1,9,0.01
2013-11-8,46.0,42.4,39.4,45.8,42.1,39.1,99,99,99,29.24,29.11,4,1,11,0.15
2013-11-9,48.0,40.1,35.8,44.3,39.0,35.5,99,96,74,29.22,29.11,4,1,8,0.02
2013-11-10,53.1,41.8,36.3,41.1,35.9,-2.4,99,82,10,29.72,29.15,49,2,101,0.01
2013-11-11,55.9,48.5,40.8,55.7,43.2,-9.0,99,86,10,29.68,29.56,4,2,11,0.37
2013-11-12,54.3,46.3,37.8,51.9,42.7,34.2,99,88,61,30.02,29.67,4,0,10,0.07
2013-11-13,51.3,41.7,33.4,43.7,37.9,31.6,99,87,64,30.04,29.64,5,2,11,0.04
2013-11-14,46.4,43.1,39.0,45.1,37.7,32.1,99,82,69,29.98,29.61,8,3,17,0.07
2013-11-15,48.4,41.6,32.2,40.9,36.2,28.2,91,81,70,30.05,29.98,2,0,7,0.00
2013-11-16,51.1,45.8,41.2,47.4,41.0,36.3,96,83,72,30.01,29.88,3,1,11,0.00
2013-11-17,51.3,45.5,41.2,50.5,42.2,37.0,99,89,85,29.88,29.54,2,0,4,0.00
2013-11-18,47.1,44.4,38.7,46.5,41.9,-6.9,99,92,10,29.53,29.29,3,1,11,0.01
2013-11-19,41.5,35.3,29.3,35.7,29.3,23.0,91,79,61,29.59,29.33,5,1,15,0.01
2013-11-20,44.2,38.5,32.7,39.1,33.4,26.9,94,82,70,29.51,28.96,7,3,27,0.27
2013-11-21,46.2,40.8,36.5,40.4,36.2,33.0,97,84,68,29.51,29.01,6,2,19,0.08
2013-11-22,44.4,38.8,34.3,40.2,34.5,30.3,99,85,66,29.73,29.50,4,1,12,0.00
2013-11-23,43.9,35.8,30.9,40.4,31.5,27.0,99,85,71,29.86,29.72,2,0,9,0.00
2013-11-24,45.7,40.4,31.5,37.5,34.0,27.2,88,78,68,30.11,29.86,4,1,9,0.00
2013-11-25,43.5,38.2,30.7,33.6,31.2,25.9,85,76,64,30.23,30.10,2,0,8,0.00
2013-11-26,43.9,38.2,27.0,37.6,32.4,23.6,91,80,66,30.22,30.07,2,0,5,0.00
2013-11-27,50.9,48.4,43.3,46.3,43.4,37.6,92,83,77,30.07,30.00,5,2,14,0.00
2013-11-28,50.4,47.3,44.2,46.7,42.9,40.4,93,85,78,30.09,30.00,4,0,9,0.00
2013-11-29,49.5,45.7,42.4,42.8,38.4,33.4,89,76,61,30.01,29.70,8,3,21,0.00
2013-11-30,45.0,40.9,37.6,36.4,31.7,29.4,78,70,60,29.95,29.73,5,1,15,0.00
2013-12-1,50.0,46.3,39.9,41.3,39.3,36.1,93,77,71,30.08,29.93,4,1,11,0.00
2013-12-2,46.9,44.6,41.9,42.8,38.1,32.8,96,79,66,30.08,29.96,2,1,4,0.00
2013-12-3,44.2,42.2,40.6,37.6,34.1,31.8,87,73,67,29.96,29.78,4,1,8,0.00
2013-12-4,45.7,41.4,35.2,42.6,34.7,28.7,90,77,62,29.96,29.74,4,2,11,0.00
2013-12-5,51.3,41.4,34.5,41.7,32.0,27.7,83,70,53,29.92,29.45,11,4,27,0.06
2013-12-6,45.1,40.6,36.0,39.8,32.2,25.7,90,72,10,29.86,29.74,99,2,107,0.00
2013-12-7,47.3,43.7,40.8,42.7,39.2,35.9,97,84,71,29.81,29.71,5,2,11,0.00
2013-12-8,50.9,46.1,41.9,45.0,41.3,38.9,99,84,70,29.74,29.67,8,3,16,0.00
2013-12-9,48.7,44.4,39.9,48.0,41.6,38.3,99,90,78,29.85,29.73,4,1,10,0.00
2013-12-10,48.2,42.5,35.1,45.2,38.3,34.8,99,86,67,29.90,29.84,4,1,10,0.00
2013-12-11,41.2,37.9,33.4,40.9,37.3,33.2,99,98,85,29.89,29.73,2,0,7,0.01
2013-12-12,50.5,45.2,34.7,49.6,43.9,33.4,99,95,90,29.74,29.61,5,2,11,0.05
2013-12-13,53.8,49.4,42.1,50.3,47.0,36.9,99,92,77,29.60,29.44,4,2,13,0.09
2013-12-14,51.6,45.5,37.6,49.3,40.2,33.3,95,82,70,29.69,29.38,10,4,26,0.00
2013-12-15,55.4,50.4,41.9,54.7,48.0,37.8,99,92,73,29.59,29.34,11,4,21,0.12
2013-12-16,54.9,49.7,42.3,54.0,45.4,32.1,98,86,66,29.64,29.28,9,3,25,0.12
2013-12-17,43.9,39.7,36.3,37.8,34.6,31.7,93,82,67,29.74,29.47,2,1,8,0.00
2013-12-18,50.2,44.6,37.9,47.8,43.2,37.2,99,95,88,29.47,28.67,7,3,20,0.44
2013-12-19,43.0,38.4,33.1,42.4,33.8,30.2,99,84,68,29.28,28.75,5,2,14,0.09
2013-12-20,48.9,41.5,33.6,47.5,37.3,31.4,99,85,77,29.57,29.28,11,4,23,0.11
2013-12-21,52.7,48.8,43.3,50.1,45.0,34.4,99,87,67,29.38,29.04,10,4,25,0.19
2013-12-22,44.8,40.3,35.8,40.8,34.5,30.0,97,80,63,29.32,29.13,8,3,20,0.22
2013-12-23,52.5,46.0,36.1,52.3,43.8,32.9,99,92,85,29.32,28.14,11,4,24,0.76
2013-12-24,51.8,42.1,37.6,51.5,35.1,31.1,99,76,61,28.38,28.14,11,4,21,0.13
2013-12-25,41.9,36.9,34.3,35.7,32.4,30.0,95,84,73,28.68,28.36,4,1,10,0.00
2013-12-26,43.2,37.3,32.4,39.5,36.1,32.1,99,95,80,28.93,28.52,6,2,21,0.04
2013-12-27,50.2,44.3,39.4,49.6,36.1,32.3,99,73,57,28.67,28.33,12,5,28,0.22
2013-12-28,43.0,38.0,34.5,36.2,32.9,30.4,89,82,72,29.19,28.67,5,2,14,0.00
2013-12-29,45.1,38.7,33.6,41.5,34.1,31.6,95,84,72,29.48,29.19,7,2,14,0.02
2013-12-30,50.2,45.6,39.0,47.9,40.7,-4.8,98,85,10,29.32,28.96,9,4,23,0.27
2013-12-31,47.3,42.8,39.0,43.9,39.5,35.6,94,88,80,29.26,28.93,7,2,18,0.09
2014-1-1,50.5,45.1,40.3,50.3,43.6,37.0,99,94,86,28.97,28.42,8,3,18,0.74
2014-1-2,47.7,44.1,40.5,45.4,41.2,39.2,99,90,75,28.87,28.47,6,2,12,0.07